Theta_e
325 325 322 321 321 320 318 316 312 309 310 315 314 322 319 317 318 319 319 317 316 313 312 312 313 313 312 312 312 311 312 315 316 317 321 324 331 337
323 324 323 322 322 321 320 319 318 314 309 315 315 320 321 317 317 318 318 316 315 314 313 313 312 311 311 311 312 310 313 314 314 318 320 322 329 333
324 322 322 324 321 321 321 320 318 316 312 314 317 319 322 317 318 320 317 314 314 313 314 313 312 310 311 312 311 311 312 312 312 315 316 318 325 328
321 321 321 320 322 323 319 323 321 321 315 315 319 316 318 318 320 318 316 312 313 313 313 313 311 310 310 311 310 311 310 309 309 310 313 314 319 325
321 321 320 319 317 316 316 317 317 317 318 314 313 315 315 318 317 316 314 311 313 315 313 313 311 311 311 311 310 309 308 306 306 306 309 311 313 321
321 321 320 316 314 312 311 314 315 316 317 314 313 312 314 317 313 310 308 310 312 313 315 313 311 312 312 312 311 311 308 305 304 304 305 306 306 312
321 320 319 313 312 310 308 310 313 314 313 311 311 308 309 309 306 308 307 308 312 313 311 312 311 312 314 313 312 311 307 305 303 303 304 304 303 306
319 318 316 313 311 307 307 307 309 311 311 308 307 306 308 310 310 308 307 306 305 315 309 311 313 313 312 310 308 306 305 304 303 303 303 303 305 307
318 315 310 308 307 304 306 307 312 308 307 310 308 309 309 311 310 308 308 309 308 312 308 307 310 309 312 312 307 306 304 303 302 302 303 302 302 303
317 314 310 307 301 299 306 314 315 313 315 314 316 315 316 315 312 314 314 312 313 311 309 302 309 306 309 310 307 306 304 302 302 302 302 302 301 300
315 309 306 305 294 294 307 310 311 313 310 309 305 303 301 300 302 312 311 309 306 306 309 305 306 305 307 307 309 306 305 303 301 302 302 301 303 304
314 304 296 297 294 294 304 307 306 308 308 312 316 316 311 314 307 317 316 307 309 304 307 302 305 304 301 307 309 308 308 305 305 301 301 302 300 313
307 304 303 294 293 293 293 305 303 301 307 314 315 313 316 316 315 317 316 312 308 305 308 306 305 303 302 302 305 305 305 306 308 310 303 300 300 304
303 301 301 293 293 294 297 294 294 299 310 310 310 310 310 311 313 316 320 315 314 310 311 306 303 303 303 301 300 305 306 305 305 307 308 306 301 298
303 298 295 294 294 300 296 295 298 304 305 304 304 305 308 312 316 315 317 318 317 313 313 312 307 305 307 302 300 301 300 303 304 304 304 304 301 304
303 304 301 297 296 300 303 303 304 304 303 303 303 304 306 307 307 311 309 311 310 310 314 314 311 307 304 305 304 302 302 299 302 303 304 302 299 300
293 304 302 302 302 303 303 303 303 303 303 303 303 303 303 303 304 307 308 307 306 305 306 309 312 310 306 304 301 301 302 303 307 304 303 302 299 299
300 300 299 300 300 301 301 301 301 301 302 303 303 303 302 302 302 304 304 305 304 303 304 305 307 306 307 302 304 300 302 305 307 308 308 305 302 301
299 298 298 299 299 300 300 300 299 300 303 302 302 302 302 302 301 301 301 301 301 305 306 305 305 302 298 298 303 299 299 302 303 305 305 306 302 300
298 297 297 297 298 298 299 299 300 300 300 300 301 301 301 301 300 300 300 299 299 301 302 306 306 303 299 299 300 301 296 301 299 299 300 305 298 296
296 296 297 297 297 297 298 299 300 298 298 299 300 300 300 300 300 300 299 292 294 299 299 301 305 294 308 307 300 298 299 299 299 297 298 299 298 300
296 295 295 296 296 296 297 297 297 297 298 298 299 299 299 300 299 299 299 298 298 297 299 301 304 304 302 301 300 299 296 301 300 299 298 297 294 292
295 295 295 295 295 295 295 295 295 296 296 296 298 298 298 297 299 299 298 298 298 296 298 298 300 301 299 299 296 299 301 296 295 299 298 297 297 297
Wind_Speed
6 7 7 6 5 6 6 5 6 11 11 11 11 12 11 11 13 16 14 18 18 9 14 17 20 22 25 24 24 22 21 22 25 23 21 22 21 17
6 6 7 7 6 6 6 7 8 10 10 11 12 11 10 10 14 15 15 18 19 19 13 16 16 18 22 22 21 20 21 23 23 17 18 19 9 9
6 6 7 7 8 8 9 8 9 10 11 11 11 11 12 11 12 14 14 16 13 15 15 15 15 20 21 20 18 18 21 21 19 19 19 17 10 11
6 7 8 8 10 10 10 9 9 8 9 12 10 11 11 13 12 15 12 13 13 13 11 10 11 16 18 18 15 16 20 20 19 19 18 17 11 8
6 8 9 10 11 11 12 11 11 10 10 10 11 10 12 11 13 13 13 11 12 16 14 8 8 10 12 14 15 17 20 18 18 17 18 16 11 8
6 7 6 9 11 11 11 12 11 12 11 10 10 11 10 13 12 12 13 10 11 11 16 12 7 9 6 9 18 19 21 19 21 18 17 16 9 7
7 8 9 6 4 8 9 11 12 11 10 11 11 10 11 11 13 11 12 12 13 9 12 12 11 7 8 10 20 21 22 22 21 20 18 15 8 5
8 9 11 2 13 15 15 18 15 11 10 8 7 9 12 10 10 10 9 9 9 9 12 13 11 10 9 9 19 19 21 23 21 20 18 14 6 7
8 8 10 10 13 13 14 19 9 9 10 7 9 8 9 9 8 10 11 11 10 9 11 10 10 11 9 7 19 20 18 22 20 19 19 16 16 9
5 7 8 11 12 13 12 11 10 5 6 8 7 9 8 8 8 11 9 9 10 7 8 5 10 11 8 7 15 21 18 17 21 20 20 18 16 18
5 8 9 10 11 15 11 11 12 11 12 11 15 13 15 13 12 8 10 10 7 7 6 6 8 10 6 7 8 16 15 19 15 22 24 22 11 13
5 10 15 10 10 13 11 11 10 11 13 14 9 2 5 7 5 10 9 7 9 3 7 8 8 8 6 4 9 11 10 19 14 14 21 25 23 7
7 8 8 8 8 13 12 10 10 13 15 8 7 7 9 9 11 11 9 5 7 3 6 6 6 7 4 5 6 9 9 11 10 9 10 14 20 19
7 7 7 10 12 10 10 13 15 13 9 9 9 7 7 8 9 10 10 9 5 8 6 3 3 7 5 5 5 8 8 8 9 10 10 11 12 19
6 4 10 12 16 6 13 14 10 10 9 10 10 10 9 7 7 8 10 10 6 9 8 6 3 5 5 5 6 7 7 5 9 6 8 11 10 9
8 4 6 9 9 8 7 9 9 9 9 9 10 10 10 9 9 8 7 10 9 10 12 14 13 3 5 8 8 7 6 4 7 6 3 5 6 6
11 5 6 7 7 7 8 9 9 10 10 10 10 10 11 11 11 10 8 8 9 11 12 10 13 6 2 5 6 9 8 7 7 3 4 1 5 6
4 6 7 7 8 8 9 9 10 11 10 10 10 11 11 11 11 10 10 8 6 8 9 11 11 10 6 3 9 10 9 8 8 5 3 4 3 4
6 6 7 7 8 8 8 9 10 10 11 10 10 11 11 11 11 11 11 12 10 5 5 7 9 7 6 8 2 11 9 9 9 9 8 5 5 4
6 7 7 7 8 8 8 9 9 9 10 10 10 11 11 11 11 12 11 12 12 11 10 6 8 7 6 6 4 4 8 7 7 9 9 3 1 1
6 6 6 7 8 8 8 8 9 9 10 10 10 11 11 11 11 11 11 9 11 12 12 11 9 5 4 5 8 9 9 5 6 7 8 6 7 5
6 6 7 7 7 8 8 9 9 10 10 10 11 11 11 10 11 12 12 12 11 12 11 10 10 9 9 8 6 5 5 8 5 9 12 9 3 5
5 6 7 7 7 8 9 9 10 10 11 11 10 11 11 11 11 11 11 12 11 12 13 11 10 9 10 10 8 10 11 6 6 7 7 4 2 5
Wind_Direction
62 24 352 7 2 3 355 354 322 323 340 346 347 7 356 356 327 335 333 330 338 309 310 319 328 329 329 325 325 326 322 318 319 307 302 305 289 260
40 25 4 11 345 360 334 340 328 343 327 347 331 4 351 348 335 333 334 344 345 345 318 342 335 342 340 337 338 337 329 326 329 322 319 318 278 149
34 28 19 2 358 5 333 1 337 350 330 333 326 350 351 332 342 342 353 351 332 331 341 330 341 347 340 338 339 326 326 331 335 344 340 334 280 183
38 18 22 7 358 360 336 349 334 329 311 323 338 348 345 318 346 353 351 336 322 338 319 323 354 347 339 347 348 341 337 340 343 344 346 339 321 260
28 16 15 9 3 352 340 335 336 332 327 328 338 345 327 7 344 350 352 340 325 342 348 338 344 326 329 349 359 353 346 343 343 337 339 336 321 255
26 8 12 11 4 349 336 327 339 326 339 342 339 347 336 360 350 347 343 343 332 339 346 332 279 321 343 349 9 1 349 349 346 342 336 326 308 275
17 8 13 52 350 2 336 330 322 335 336 347 342 334 340 342 346 337 338 333 341 343 342 343 345 4 355 20 7 4 353 353 353 348 343 327 303 244
11 11 346 59 9 359 335 317 290 288 328 340 332 327 331 332 333 332 329 339 340 352 349 339 357 358 20 20 4 4 0 357 357 351 351 350 1 156
18 13 353 4 20 347 337 307 309 214 237 301 303 314 318 325 321 326 338 334 327 5 355 336 355 347 358 7 19 6 4 4 0 358 8 13 51 42
18 31 360 358 16 344 328 347 340 160 329 303 295 292 313 328 316 330 320 332 329 8 12 311 336 341 346 0 19 4 7 4 10 15 17 20 48 58
31 53 23 13 356 332 337 360 348 357 327 277 261 267 276 282 269 329 349 346 338 341 3 328 342 336 333 344 360 3 5 4 7 25 23 25 32 56
76 123 72 33 331 319 343 2 351 343 322 308 301 335 280 25 283 349 353 351 6 331 6 336 341 349 327 340 355 9 1 1 356 27 29 23 16 71
11 15 30 356 318 308 313 358 329 311 298 306 8 4 357 359 360 4 15 15 6 3 358 342 329 346 341 314 339 1 357 5 2 15 63 44 40 32
20 19 3 320 298 288 312 320 307 312 355 354 2 4 348 356 352 2 9 13 39 11 331 24 319 337 332 332 340 344 1 15 4 7 13 23 76 68
0 326 277 277 281 287 241 277 324 11 1 3 0 354 350 334 344 14 358 9 20 20 8 353 327 334 353 4 350 351 349 356 1 7 18 26 12 24
6 248 312 285 262 281 6 17 15 12 3 6 3 355 352 2 350 17 15 350 358 5 3 7 7 54 352 3 3 354 360 351 338 355 8 51 32 12
324 346 9 9 10 16 16 18 24 8 7 6 5 1 2 8 356 360 32 8 1 2 355 1 5 11 24 2 7 358 351 359 349 347 356 69 61 44
314 19 15 12 13 14 12 11 20 8 3 4 7 4 1 5 355 5 10 13 14 1 357 355 1 3 7 89 41 9 356 350 342 5 348 7 76 99
30 27 22 15 10 13 11 8 13 8 359 6 7 6 2 360 0 6 12 10 356 359 351 15 12 7 350 8 41 49 5 355 349 1 2 355 53 30
35 31 23 17 11 9 6 7 9 8 4 5 7 8 1 359 3 3 9 18 354 356 360 4 24 20 6 353 351 358 3 7 9 360 357 19 67 173
29 40 29 19 16 6 10 359 8 8 5 2 6 6 1 359 1 3 4 8 8 356 356 4 16 202 54 26 14 11 354 32 66 33 360 1 353 7
23 34 39 23 21 9 8 3 6 10 7 3 2 1 4 355 359 360 3 356 14 359 348 356 359 2 15 25 4 21 4 358 127 97 81 67 11 349
35 17 36 28 24 18 11 7 9 8 7 1 355 358 3 355 357 360 1 2 14 4 347 355 0 3 21 5 0 22 30 29 357 16 17 56 49 16